Tampa Macdill AFB, FL

9:35 PM EST on January 21, 2018 (GMT -0500)
MacDill Air Force Base

Weather History for KMCF - November, 2012

Change the Weather History Date:

Wednesday, November 14, 2012

  Actual Average Record
Temperature  
Mean Temperature 68 °F -  
Max Temperature 78 °F 76 °F 86 °F (2011)
Min Temperature 59 °F 58 °F 50 °F (2002)
Cooling Degree Days 4    
Growing Degree Days 18 (Base 50)    
Moisture  
Dew Point 65 °F    
Average Humidity 95    
Maximum Humidity 100    
Minimum Humidity 69    
Precipitation  
Precipitation 0.00 in - - ()
Sea Level Pressure  
Sea Level Pressure 30.15 in    
Wind  
Wind Speed 5 mph (ENE)    
Max Wind Speed 15 mph    
Max Gust Speed -    
Visibility 8 miles    
Events      
Averages and records for this station are not official NWS values.
T = Trace of Precipitation, MM = Missing Value Source: NWS Daily Summary

Daily Weather History Graph

Daily Weather History Graph

Search for Another Location

Airport or City:

Trip Planner

Search our weather history database for the weather conditions in past years. The results will help you decide how hot, cold, wet, or windy it might be!

Date:

Astronomy

Nov. 14, 2012 Rise Set
Actual Time 6:51 AM EST 5:37 PM EST
Civil Twilight 6:26 AM EST 6:02 PM EST
Nautical Twilight 5:57 AM EST 6:30 PM EST
Astronomical Twilight 5:30 AM EST 6:58 PM EST
Moon 7:34 AM EST (11/14) 6:30 PM EST (11/14)
Length of Visible Light 11h 36m
Length of Day
10h 46m
New Moon, 1% of the Moon is Illuminated
Nov 14
New Moon
Nov 20
First Quarter
Nov 28
Full
Dec 6
Last Quarter
Dec 13
New

Hourly Weather History & Observations

Time (EST) Temp. Dew Point Humidity Pressure Visibility Wind Dir Wind Speed Gust Speed Precip Events Conditions
12:55 AM 63.0 °F 62.4 °F 98% 30.14 in 10.0 mi Calm Calm - N/A   Clear
1:55 AM 61.5 °F 61.2 °F 99% 30.12 in 10.0 mi ENE 4.6 mph - N/A   Clear
2:55 AM 61.7 °F 61.5 °F 99% 30.12 in 10.0 mi ENE 4.6 mph - N/A   Clear
3:36 AM 62.6 °F 62.6 °F 100% 30.12 in 2.5 mi Calm Calm - N/A   Clear
3:37 AM 62.6 °F 62.6 °F 100% 30.12 in 2.0 mi Calm Calm - N/A   Clear
3:38 AM 62.6 °F 62.6 °F 100% 30.12 in 1.8 mi Calm Calm - N/A   Clear
3:42 AM 62.6 °F 62.6 °F 100% 30.12 in 1.5 mi Calm Calm - N/A   Clear
3:43 AM 62.6 °F 62.6 °F 100% 30.12 in 1.5 mi Calm Calm - N/A   Clear
3:45 AM 62.6 °F 62.6 °F 100% 30.12 in 2.0 mi Calm Calm - N/A   Clear
3:47 AM 62.6 °F 62.6 °F 100% 30.12 in 3.0 mi Calm Calm - N/A   Clear
3:55 AM 62.2 °F 61.9 °F 99% 30.13 in 10.0 mi Calm Calm - N/A   Clear
4:55 AM 60.4 °F 60.1 °F 99% 30.13 in 10.0 mi NNE 3.5 mph - N/A   Clear
5:16 AM 60.8 °F 59.0 °F 94% 30.13 in 4.0 mi NE 4.6 mph - N/A   Clear
5:24 AM 59.0 °F 59.0 °F 100% 30.13 in 8.0 mi NE 4.6 mph - N/A   Clear
5:55 AM 60.6 °F 60.4 °F 99% 30.14 in 9.0 mi ENE 5.8 mph - N/A   Clear
6:01 AM 60.8 °F 60.8 °F 100% 30.14 in 8.0 mi NE 4.6 mph - N/A   Partly Cloudy
6:40 AM 60.8 °F 60.8 °F 100% 30.15 in 4.0 mi ENE 8.1 mph - N/A   Scattered Clouds
6:55 AM 61.5 °F 61.5 °F 100% 30.16 in 9.0 mi ENE 9.2 mph - N/A   Mostly Cloudy
6:58 AM 62.6 °F 62.6 °F 100% 30.16 in 10.0 mi ENE 9.2 mph - N/A   Mostly Cloudy
7:51 AM 64.4 °F 64.4 °F 100% 30.17 in 8.0 mi ENE 11.5 mph - N/A   Overcast
7:55 AM 64.6 °F 64.6 °F 100% 30.17 in 8.0 mi ENE 12.7 mph - N/A   Overcast
8:20 AM 64.4 °F 64.4 °F 100% 30.18 in 10.0 mi ENE 9.2 mph - N/A   Overcast
8:55 AM 65.1 °F 65.1 °F 100% 30.19 in 8.0 mi ENE 9.2 mph - N/A   Overcast
9:17 AM 66.2 °F 66.2 °F 100% 30.19 in 9.0 mi ENE 11.5 mph - N/A   Overcast
9:43 AM 66.2 °F 66.2 °F 100% 30.19 in 10.0 mi ENE 10.4 mph - N/A   Overcast
9:55 AM 67.8 °F 67.8 °F 100% 30.20 in 10.0 mi ENE 10.4 mph - N/A   Overcast
10:06 AM 68.0 °F 68.0 °F 100% 30.20 in 10.0 mi NE 11.5 mph - N/A   Overcast
10:42 AM 69.8 °F 69.8 °F 100% 30.20 in 10.0 mi ENE 8.1 mph - N/A   Overcast
10:55 AM 69.4 °F 69.4 °F 100% 30.20 in 10.0 mi East 10.4 mph - N/A   Overcast
11:15 AM 69.8 °F 69.8 °F 100% 30.20 in 10.0 mi East 11.5 mph - N/A   Overcast
11:46 AM 71.6 °F 69.8 °F 94% 30.19 in 10.0 mi ENE 11.5 mph - N/A   Overcast
11:55 AM 71.4 °F 69.1 °F 92% 30.18 in 10.0 mi East 11.5 mph - N/A   Overcast
12:41 PM 73.4 °F 68.0 °F 83% 30.16 in 10.0 mi ENE 8.1 mph - N/A   Overcast
12:55 PM 73.6 °F 68.2 °F 83% 30.16 in 10.0 mi East 10.4 mph - N/A   Overcast
1:55 PM 75.0 °F 67.6 °F 78% 30.14 in 10.0 mi ENE 8.1 mph - N/A   Overcast
2:12 PM 75.2 °F 68.0 °F 78% 30.14 in 10.0 mi East 6.9 mph - N/A   Scattered Clouds
2:55 PM 76.8 °F 67.6 °F 73% 30.13 in 10.0 mi East 8.1 mph - N/A   Partly Cloudy
3:55 PM 78.4 °F 67.5 °F 69% 30.12 in 10.0 mi ENE 9.2 mph - N/A   Clear
4:55 PM 74.1 °F 66.6 °F 77% 30.11 in 10.0 mi ENE 9.2 mph - N/A   Clear
5:55 PM 71.2 °F 64.6 °F 79% 30.12 in 10.0 mi Calm Calm - N/A   Clear
6:55 PM 68.4 °F 64.4 °F 87% 30.13 in 10.0 mi NNE 5.8 mph - N/A   Clear
7:55 PM 67.3 °F 64.4 °F 90% 30.14 in 10.0 mi NE 5.8 mph - N/A   Clear
8:55 PM 65.8 °F 64.0 °F 94% 30.17 in 10.0 mi ENE 5.8 mph - N/A   Clear
9:50 PM 66.2 °F 64.4 °F 94% 30.17 in 10.0 mi ENE 13.8 mph - N/A   Mostly Cloudy
9:55 PM 65.8 °F 65.3 °F 98% 30.17 in 10.0 mi ENE 15.0 mph - N/A   Mostly Cloudy
10:27 PM 66.2 °F 64.4 °F 94% 30.16 in 10.0 mi ENE 9.2 mph - N/A   Scattered Clouds
10:55 PM 64.4 °F 64.0 °F 99% 30.16 in 10.0 mi ENE 6.9 mph - N/A   Clear
11:41 PM 64.4 °F 64.4 °F 100% 30.14 in 10.0 mi ENE 9.2 mph - N/A   Mostly Cloudy
11:55 PM 64.4 °F 64.4 °F 100% 30.14 in 10.0 mi ENE 9.2 mph - N/A   Overcast